Location: Newsoms
(36.6240°N, 77.1250°W)
Time: 07:41:18
(UTC-04:00)

Daily predictions for brighter satellites

Satellite Brightness Start Highest point End
(mag) Time Altitude Azimuth Time Altitude Azimuth Time Altitude Azimuth
Resurs 01 Rocket 2.6 19:46:20 10° SE 19:50:05 28° ENE 19:53:52 10° NNE
Delta 2 Rocket 3.8 19:45:17 10° W 19:50:16 71° S 19:54:36 10° ESE
Cosmos 192 4.5 19:45:29 10° NNW 19:50:25 83° WSW 19:55:19 10° SSE
Helios 1B rocket 4.1 19:50:15 10° ENE 19:52:25 14° E 19:54:34 10° SE
ATLAS 5 CENTAUR R/B 3.5 19:51:31 10° SE 19:53:11 12° ESE 19:54:52 10° E
Cosmos 1605 Rocket 4.5 19:48:08 10° SSE 19:53:48 38° E 19:59:35 10° NNE
Cosmos 1544 4.4 19:52:27 10° SE 19:55:09 20° E 19:57:50 10° NE
Lacrosse 4 Rocket 2.9 19:54:03 10° SW 19:57:52 40° WNW 20:01:42 10° N
H-2A R/B 3.6 19:54:49 10° SE 19:58:17 32° ENE 20:01:47 10° N
GPS 2-05 Rocket1 4.1 20:00:43 10° SW 20:03:44 26° SSE 20:06:21 13° ESE
Meteor 1-24 Rocket 3.7 19:59:15 10° N 20:04:44 65° E 20:10:23 10° SSE
Cosmos 1707 3.5 20:01:47 10° NNW 20:05:37 58° W 20:09:24 10° S
Cosmos 1953 3.4 20:04:07 10° SE 20:07:24 24° E 20:10:40 10° NE
Cosmos 2082 Rocket 3.6 20:05:19 10° N 20:09:27 20° NE 20:12:40 13° E
Cosmos 2123 Rocket 4.1 20:03:43 10° N 20:09:56 57° E 20:16:04 10° SSE
Cosmos 1867 4.1 20:08:31 10° S 20:13:24 35° ESE 20:18:17 10° NE
ALOS 2.2 20:09:07 10° SSE 20:13:46 85° ENE 20:18:28 10° N
USA 215 3.7 20:11:55 10° ENE 20:17:58 39° SE 20:23:57 10° SSW
COSMOS 2406 4.4 20:17:26 10° NW 20:22:52 45° WSW 20:28:14 10° S
Cosmos 1766 3.5 20:19:39 10° SSW 20:23:30 72° W 20:27:23 10° N
Spot 2 Rocket 3.5 20:18:56 10° SSE 20:23:58 65° ENE 20:29:03 10° N
Cosmos 1271 Rocket 4.4 20:25:41 17° ENE 20:25:41 17° ENE 20:27:37 10° NE
CZ-4B DEB 4.4 20:31:09 18° ENE 20:31:09 18° ENE 20:32:53 10° NNE
H-II Stage 2 2.8 20:30:58 10° SW 20:32:23 16° S 20:32:29 16° SSE
Resurs 1-3 3.5 20:28:31 10° SSE 20:32:52 73° ENE 20:37:15 10° N
ISS -2.2 20:32:42 10° S 20:34:28 20° SSE 20:34:28 20° SSE
BREEZE-M DEB (TANK) 3.7 20:37:37 10° WSW 20:40:19 51° NNW 20:46:55 10° NE
RESURS DK-1 2.7 20:37:36 10° NNW 20:41:43 65° WSW 20:45:41 11° SSE
Envisat 3.7 20:40:01 25° ESE 20:42:04 34° ENE 20:46:38 10° N
Cosmos 1674 3.4 20:44:06 10° NNE 20:47:22 33° ENE 20:47:22 33° ENE
Cosmos 1447 Rocket 4.4 20:42:27 10° N 20:48:33 63° E 20:54:37 10° SSE
Lacrosse 5 3.4 20:44:06 10° WSW 20:48:45 36° NW 20:53:26 10° NNE
Cosmos 1459 Rocket 4.3 20:43:35 10° SSE 20:49:25 42° E 20:55:10 10° NNE
Cosmos 1408 Rocket 4.0 20:45:10 10° N 20:49:25 41° E 20:50:27 35° ESE
Cosmos 1125 Rocket 3.4 20:44:34 10° SSW 20:49:45 80° ESE 20:54:58 10° NNE
Cosmos 2344 4.5 20:43:59 10° SW 20:51:24 51° NW 20:59:41 10° NNE
Meteor 1-21 Rocket 4.3 20:45:43 10° N 20:51:30 61° E 20:55:59 17° SSE
CZ-2D R/B 3.4 20:47:41 10° S 20:51:31 75° WSW 20:55:25 10° NNW
BREEZE-M DEB (TANK) 2.8 20:49:45 10° SW 20:52:44 70° SE 21:01:51 10° ENE
Cosmos 2173 Rocket 4.2 20:48:08 10° SSE 20:53:54 44° E 20:59:46 10° NNE
Timation 1 Rocket 4.4 20:49:51 10° SSW 20:55:52 82° WNW 21:01:55 10° NNE
Cosmos 1048 Rocket 4.1 20:51:08 10° N 20:56:07 50° ENE 20:57:43 37° ESE
SAR-Lupe-4 3.4 20:55:34 38° SSE 20:56:51 84° E 21:00:27 10° N
Cosmos 1805 3.9 20:53:18 10° SSW 20:57:06 55° W 21:00:57 10° N
Geosat 4.4 20:53:14 10° NNE 20:58:13 65° WNW 21:03:11 10° SW
Okean 3 Rocket 4.1 20:56:36 10° NNW 21:00:56 59° W 21:05:15 10° S
ERS-1 Rocket 3.9 21:03:25 29° ENE 21:03:25 29° ENE 21:07:25 10° N
Tiangong 1 1.8 21:00:33 10° WNW 21:03:03 43° SW 21:03:03 43° SW
Yuri Rocket 4.5 21:02:39 10° WSW 21:05:55 22° S 21:06:14 22° S
Abrixas 4.1 21:05:13 10° NW 21:06:57 27° NNW 21:06:57 27° NNW
SeaSat 1 4.2 21:05:36 10° S 21:09:53 30° WSW 21:14:12 10° NW
Cosmos 1470 2.8 21:12:27 66° NE 21:12:27 66° NE 21:16:02 10° N
USA 186 4.0 21:15:09 16° NW 21:15:09 16° NW 21:15:48 10° NW
SAR-Lupe-1 4.5 21:16:04 54° SW 21:16:32 60° WSW 21:20:05 10° NNW
Cosmos 1340 Rocket 3.9 21:14:36 10° N 21:17:07 33° NNE 21:17:07 33° NNE
Meteor 1-29 3.6 21:16:26 10° N 21:19:49 54° WNW 21:21:00 34° SW
Cosmos 1833 Rocket 2.6 21:14:39 10° NNW 21:20:16 68° ENE 21:21:14 57° ESE
H-2A R/B (2) 3.3 21:17:13 10° WSW 21:20:27 30° S 21:20:59 29° SSE
Cosmos 2278 Rocket 4.3 21:16:40 10° WSW 21:21:27 28° WNW 21:26:16 10° N
GP-B 3.5 21:19:19 20° SSW 21:22:17 62° W 21:26:41 10° N
Cosmos 1076 Rocket 4.2 21:19:06 10° NNW 21:23:13 50° W 21:25:13 27° SSW
Cosmos 1818 3.5 21:18:12 10° NNW 21:23:40 80° WSW 21:25:02 52° SSE
COSMOS 2487 3.5 21:21:13 10° NNW 21:23:40 41° NNW 21:23:40 41° NNW
Cosmos 2016 Rocket 3.9 21:24:19 51° SE 21:25:23 58° E 21:31:26 10° NNE
Cosmos 1733 4.1 21:27:32 44° N 21:27:32 44° N 21:30:18 10° N
Resurs 01 Rocket 3.9 21:23:03 10° SSW 21:26:31 23° W 21:30:01 10° NW
SJ-11-01 4.2 21:26:01 71° SSE 21:26:32 89° NE 21:31:17 10° NNW
Meteor 2-17 Rocket 4.4 21:25:49 54° ESE 21:26:34 58° E 21:32:35 10° NNE
Helios 1B rocket 3.8 21:24:01 10° N 21:27:52 39° WNW 21:31:42 10° SW
CZ-3B DEB 4.4 21:21:44 10° W 21:29:31 26° NW 21:33:51 10° NNE
Cosmos 1269 Rocket 4.2 21:27:29 10° NNW 21:32:45 71° WSW 21:33:59 51° SSW
Cosmos 1766 Rocket 4.1 21:29:00 10° NNW 21:33:24 57° W 21:34:17 48° SW
Helios 1A 4.4 21:33:37 25° SW 21:35:18 36° W 21:39:10 10° NNW
ATLAS 5 CENTAUR R/B 2.1 21:32:28 10° SW 21:37:04 64° NW 21:41:12 15° NNE
Cosmos 2100 Rocket 4.2 21:33:42 10° SSW 21:39:58 69° W 21:46:20 10° N
Cosmos-2242 4.3 21:44:00 27° SW 21:45:43 39° W 21:49:43 10° N
SL-08 R/B 4.4 21:46:08 71° ENE 21:46:08 71° ENE 21:52:20 10° N
Cosmos 1939 Rocket 4.0 21:46:50 44° WNW 21:46:50 44° WNW 21:50:03 10° NNW
Cosmos 2082 Rocket 2.7 21:48:21 10° NNW 21:53:53 55° WSW 21:54:34 51° SW
Meteor 1-16 Rocket 4.5 21:58:15 65° N 21:58:15 65° N 22:03:15 10° N
Cosmos 1802 Rocket 4.4 21:56:21 25° SSW 21:59:59 60° W 22:06:04 10° N
USA 215 3.8 21:54:41 10° NE 22:01:02 54° NW 22:07:19 10° WSW
Lacrosse 5 rocket 4.0 22:05:48 10° NNW 22:06:37 15° NNW 22:06:37 15° NNW
H-2A R/B 4.1 22:24:05 20° N 22:24:05 20° N 22:25:41 10° N
USA 267 4.1 22:32:47 41° N 22:32:47 41° N 22:37:44 10° NNW
